Time,TemperatureF,DewpointF,PressureIn,WindDirection,WindDirectionDegrees,WindSpeedMPH,WindSpeedGustMPH,Humidity,HourlyPrecipIn,Conditions,Clouds,dailyrainin,SoftwareType,DateUTC
2016-08-25 00:04:00,64.2,59.6,30.01,ENE,78,1.0,3.0,85,0.00,,,0.00,Wunderground v.1.15,2016-08-25 04:04:00,
2016-08-25 00:09:00,64.7,59.8,30.01,ENE,73,1.0,3.0,84,0.00,,,0.00,Wunderground v.1.15,2016-08-25 04:09:00,
2016-08-25 00:14:00,64.7,59.8,30.01,ENE,59,1.0,1.0,84,0.00,,,0.00,Wunderground v.1.15,2016-08-25 04:14:00,
2016-08-25 00:24:00,65.0,59.7,29.99,NNE,19,0.0,0.0,83,0.00,,,0.00,Wunderground v.1.15,2016-08-25 04:24:00,
2016-08-25 00:29:00,64.5,59.6,29.99,WNW,285,0.0,0.0,84,0.00,,,0.00,Wunderground v.1.15,2016-08-25 04:29:00,
2016-08-25 00:39:00,64.2,59.6,29.99,WNW,285,0.0,0.0,85,0.00,,,0.00,Wunderground v.1.15,2016-08-25 04:39:00,
2016-08-25 00:44:00,64.2,59.6,29.99,WNW,285,0.0,0.0,85,0.00,,,0.00,Wunderground v.1.15,2016-08-25 04:44:00,
2016-08-25 00:54:00,63.9,59.6,29.98,WNW,285,0.0,0.0,86,0.00,,,0.00,Wunderground v.1.15,2016-08-25 04:54:00,
2016-08-25 00:59:00,63.9,60.0,29.98,WNW,285,0.0,0.0,87,0.00,,,0.00,Wunderground v.1.15,2016-08-25 04:59:00,
2016-08-25 01:04:00,63.7,59.8,29.98,WNW,285,0.0,0.0,87,0.00,,,0.00,Wunderground v.1.15,2016-08-25 05:04:00,
2016-08-25 01:14:00,63.5,59.6,29.98,WNW,285,0.0,0.0,87,0.00,,,0.00,Wunderground v.1.15,2016-08-25 05:14:00,
2016-08-25 01:24:00,64.2,59.9,29.97,WNW,285,0.0,0.0,86,0.00,,,0.00,Wunderground v.1.15,2016-08-25 05:24:00,
2016-08-25 01:29:00,64.2,59.6,29.97,West,263,1.0,1.0,85,0.00,,,0.00,Wunderground v.1.15,2016-08-25 05:29:00,
2016-08-25 01:39:00,64.3,59.4,29.96,West,268,1.0,1.0,84,0.00,,,0.00,Wunderground v.1.15,2016-08-25 05:39:00,
2016-08-25 01:44:00,64.2,59.3,29.96,West,268,1.0,1.0,84,0.00,,,0.00,Wunderground v.1.15,2016-08-25 05:44:00,
2016-08-25 01:54:00,63.4,59.5,29.96,West,262,1.0,1.0,87,0.00,,,0.00,Wunderground v.1.15,2016-08-25 05:54:00,
2016-08-25 02:04:00,63.2,59.3,29.96,West,262,1.0,1.0,87,0.00,,,0.00,Wunderground v.1.15,2016-08-25 06:04:00,
2016-08-25 02:09:00,63.4,59.1,29.96,West,262,1.0,1.0,86,0.00,,,0.00,Wunderground v.1.15,2016-08-25 06:09:00,
2016-08-25 02:14:00,63.4,59.1,29.96,West,262,1.0,2.0,86,0.00,,,0.00,Wunderground v.1.15,2016-08-25 06:14:00,
2016-08-25 02:19:00,63.5,59.2,29.95,West,262,1.0,2.0,86,0.00,,,0.00,Wunderground v.1.15,2016-08-25 06:19:00,
2016-08-25 02:24:00,63.5,59.2,29.95,West,262,0.0,0.0,86,0.00,,,0.00,Wunderground v.1.15,2016-08-25 06:24:00,
2016-08-25 02:34:00,64.2,59.3,29.95,West,262,0.0,0.0,84,0.00,,,0.00,Wunderground v.1.15,2016-08-25 06:34:00,
2016-08-25 02:39:00,64.7,59.4,29.95,West,262,1.0,1.0,83,0.00,,,0.00,Wunderground v.1.15,2016-08-25 06:39:00,
2016-08-25 02:49:00,64.0,59.1,29.94,West,264,2.0,2.0,84,0.00,,,0.00,Wunderground v.1.15,2016-08-25 06:49:00,
2016-08-25 02:54:00,63.7,59.1,29.94,West,264,2.0,2.0,85,0.00,,,0.00,Wunderground v.1.15,2016-08-25 06:54:00,
2016-08-25 03:04:00,64.0,58.7,29.94,West,264,0.0,0.0,83,0.00,,,0.00,Wunderground v.1.15,2016-08-25 07:04:00,
2016-08-25 03:09:00,64.0,59.1,29.94,West,264,0.0,0.0,84,0.00,,,0.00,Wunderground v.1.15,2016-08-25 07:09:00,
2016-08-25 03:14:00,63.5,58.6,29.94,West,264,1.0,1.0,84,0.00,,,0.00,Wunderground v.1.15,2016-08-25 07:14:00,
2016-08-25 03:24:00,63.2,58.6,29.95,West,264,0.0,0.0,85,0.00,,,0.00,Wunderground v.1.15,2016-08-25 07:24:00,
2016-08-25 03:29:00,63.2,58.6,29.95,West,264,1.0,3.0,85,0.00,,,0.00,Wunderground v.1.15,2016-08-25 07:29:00,
2016-08-25 03:39:00,62.4,58.8,29.94,West,264,2.0,3.0,88,0.00,,,0.00,Wunderground v.1.15,2016-08-25 07:39:00,
2016-08-25 03:44:00,62.3,58.7,29.94,West,264,2.0,2.0,88,0.00,,,0.00,Wunderground v.1.15,2016-08-25 07:44:00,
2016-08-25 03:54:00,62.3,58.4,29.94,West,264,2.0,2.0,87,0.00,,,0.00,Wunderground v.1.15,2016-08-25 07:54:00,
2016-08-25 04:04:00,63.2,57.9,29.94,West,264,1.0,2.0,83,0.00,,,0.00,Wunderground v.1.15,2016-08-25 08:04:00,
2016-08-25 04:09:00,63.4,58.1,29.94,West,264,1.0,2.0,83,0.00,,,0.00,Wunderground v.1.15,2016-08-25 08:09:00,
2016-08-25 04:19:00,63.4,58.1,29.94,West,264,1.0,3.0,83,0.00,,,0.00,Wunderground v.1.15,2016-08-25 08:19:00,
2016-08-25 04:24:00,64.0,58.1,29.94,West,263,1.0,1.0,81,0.00,,,0.00,Wunderground v.1.15,2016-08-25 08:24:00,
2016-08-25 04:34:00,63.9,58.3,29.94,West,263,1.0,1.0,82,0.00,,,0.00,Wunderground v.1.15,2016-08-25 08:34:00,
2016-08-25 04:39:00,63.7,58.1,29.94,West,263,1.0,2.0,82,0.00,,,0.00,Wunderground v.1.15,2016-08-25 08:39:00,
2016-08-25 04:44:00,63.2,57.9,29.94,West,263,1.0,1.0,83,0.00,,,0.00,Wunderground v.1.15,2016-08-25 08:44:00,
2016-08-25 04:54:00,62.9,58.0,29.93,West,263,1.0,1.0,84,0.00,,,0.00,Wunderground v.1.15,2016-08-25 08:54:00,
2016-08-25 04:59:00,62.6,58.0,29.93,West,263,1.0,1.0,85,0.00,,,0.00,Wunderground v.1.15,2016-08-25 08:59:00,
2016-08-25 05:04:00,62.3,58.1,29.93,West,263,1.0,1.0,86,0.00,,,0.00,Wunderground v.1.15,2016-08-25 09:04:00,
2016-08-25 05:14:00,62.3,57.7,29.93,West,263,1.0,1.0,85,0.00,,,0.00,Wunderground v.1.15,2016-08-25 09:14:00,
2016-08-25 05:19:00,62.3,57.7,29.93,West,263,1.0,1.0,85,0.00,,,0.00,Wunderground v.1.15,2016-08-25 09:19:00,
2016-08-25 05:24:00,61.6,57.4,29.93,West,263,1.0,2.0,86,0.00,,,0.00,Wunderground v.1.15,2016-08-25 09:24:00,
2016-08-25 05:34:00,61.8,57.9,29.92,West,263,1.0,2.0,87,0.00,,,0.00,Wunderground v.1.15,2016-08-25 09:34:00,
2016-08-25 05:44:00,62.3,58.1,29.92,West,263,1.0,1.0,86,0.00,,,0.00,Wunderground v.1.15,2016-08-25 09:44:00,
2016-08-25 05:54:00,62.6,57.7,29.93,West,263,1.0,1.0,84,0.00,,,0.00,Wunderground v.1.15,2016-08-25 09:54:00,
2016-08-25 05:59:00,62.6,57.7,29.93,West,263,0.0,1.0,84,0.00,,,0.00,Wunderground v.1.15,2016-08-25 09:59:00,
2016-08-25 06:04:00,62.6,57.7,29.93,West,263,0.0,1.0,84,0.00,,,0.00,Wunderground v.1.15,2016-08-25 10:04:00,
2016-08-25 06:14:00,62.4,57.5,29.93,West,263,0.0,0.0,84,0.00,,,0.00,Wunderground v.1.15,2016-08-25 10:14:00,
2016-08-25 06:19:00,62.4,57.5,29.94,West,263,0.0,0.0,84,0.00,,,0.00,Wunderground v.1.15,2016-08-25 10:19:00,
2016-08-25 06:29:00,62.7,57.8,29.94,West,263,0.0,0.0,84,0.00,,,0.00,Wunderground v.1.15,2016-08-25 10:29:00,
2016-08-25 06:39:00,64.0,58.4,29.93,WSW,258,1.0,3.0,82,0.00,,,0.00,Wunderground v.1.15,2016-08-25 10:39:00,
2016-08-25 06:44:00,64.5,58.5,29.93,WSW,258,2.0,2.0,81,0.00,,,0.00,Wunderground v.1.15,2016-08-25 10:44:00,
2016-08-25 06:59:00,64.2,58.6,29.92,WSW,249,2.0,3.0,82,0.00,,,0.00,Wunderground v.1.15,2016-08-25 10:59:00,
2016-08-25 07:09:00,64.3,59.0,29.92,WSW,248,2.0,2.0,83,0.00,,,0.00,Wunderground v.1.15,2016-08-25 11:09:00,
2016-08-25 07:24:00,65.2,59.6,29.93,ESE,113,2.0,2.0,82,0.00,,,0.00,Wunderground v.1.15,2016-08-25 11:24:00,
2016-08-25 07:29:00,64.7,59.4,29.93,ESE,105,2.0,2.0,83,0.00,,,0.00,Wunderground v.1.15,2016-08-25 11:29:00,
2016-08-25 07:39:00,63.7,58.8,29.93,East,101,1.0,2.0,84,0.00,,,0.00,Wunderground v.1.15,2016-08-25 11:39:00,
2016-08-25 07:44:00,63.5,59.2,29.93,East,99,1.0,2.0,86,0.00,,,0.00,Wunderground v.1.15,2016-08-25 11:44:00,
2016-08-25 07:54:00,65.5,59.9,29.94,East,98,3.0,3.0,82,0.00,,,0.00,Wunderground v.1.15,2016-08-25 11:54:00,
2016-08-25 08:04:00,66.4,60.0,29.92,East,101,3.0,3.0,80,0.00,,,0.00,Wunderground v.1.15,2016-08-25 12:04:00,
2016-08-25 08:14:00,65.8,60.2,29.92,East,101,2.0,2.0,82,0.00,,,0.00,Wunderground v.1.15,2016-08-25 12:14:00,
2016-08-25 08:19:00,66.0,60.0,29.92,East,101,1.0,2.0,81,0.00,,,0.00,Wunderground v.1.15,2016-08-25 12:19:00,
2016-08-25 08:24:00,66.1,59.7,29.92,East,101,0.0,0.0,80,0.00,,,0.00,Wunderground v.1.15,2016-08-25 12:24:00,
2016-08-25 08:34:00,66.8,60.1,29.93,East,101,1.0,1.0,79,0.00,,,0.00,Wunderground v.1.15,2016-08-25 12:34:00,
2016-08-25 08:44:00,67.4,61.0,29.93,ESE,117,2.0,2.0,80,0.00,,,0.00,Wunderground v.1.15,2016-08-25 12:44:00,
2016-08-25 08:49:00,66.9,60.5,29.92,ESE,116,2.0,2.0,80,0.00,,,0.00,Wunderground v.1.15,2016-08-25 12:49:00,
2016-08-25 08:59:00,66.0,60.0,29.92,ESE,111,2.0,2.0,81,0.00,,,0.00,Wunderground v.1.15,2016-08-25 12:59:00,
2016-08-25 09:09:00,66.1,60.4,29.92,ESE,113,2.0,3.0,82,0.00,,,0.00,Wunderground v.1.15,2016-08-25 13:09:00,
2016-08-25 09:14:00,66.1,60.4,29.92,ESE,103,2.0,2.0,82,0.00,,,0.00,Wunderground v.1.15,2016-08-25 13:14:00,
2016-08-25 09:19:00,66.6,60.6,29.93,East,84,2.0,2.0,81,0.00,,,0.00,Wunderground v.1.15,2016-08-25 13:19:00,
2016-08-25 09:29:00,67.4,61.0,29.93,ESE,103,1.0,2.0,80,0.00,,,0.00,Wunderground v.1.15,2016-08-25 13:29:00,
2016-08-25 09:39:00,68.1,61.0,29.93,ESE,103,1.0,2.0,78,0.00,,,0.00,Wunderground v.1.15,2016-08-25 13:39:00,
2016-08-25 09:49:00,69.1,61.6,29.92,ESE,103,1.0,2.0,77,0.00,,,0.00,Wunderground v.1.15,2016-08-25 13:49:00,
2016-08-25 09:54:00,69.9,62.4,29.92,ESE,103,1.0,2.0,77,0.00,,,0.00,Wunderground v.1.15,2016-08-25 13:54:00,
2016-08-25 10:04:00,70.4,62.5,29.92,ESE,103,1.0,1.0,76,0.00,,,0.00,Wunderground v.1.15,2016-08-25 14:04:00,
2016-08-25 10:09:00,71.1,62.8,29.92,ESE,103,0.0,1.0,75,0.00,,,0.00,Wunderground v.1.15,2016-08-25 14:09:00,
2016-08-25 10:14:00,72.0,63.6,29.92,ESE,103,0.0,0.0,75,0.00,,,0.00,Wunderground v.1.15,2016-08-25 14:14:00,
2016-08-25 10:19:00,72.1,63.4,29.92,ESE,103,1.0,3.0,74,0.00,,,0.00,Wunderground v.1.15,2016-08-25 14:19:00,
2016-08-25 10:29:00,74.0,64.0,29.92,SE,136,1.0,2.0,71,0.00,,,0.00,Wunderground v.1.15,2016-08-25 14:29:00,
2016-08-25 10:34:00,74.4,63.6,29.91,SE,136,1.0,2.0,69,0.00,,,0.00,Wunderground v.1.15,2016-08-25 14:34:00,
2016-08-25 10:44:00,73.7,64.1,29.91,SE,136,2.0,3.0,72,0.00,,,0.00,Wunderground v.1.15,2016-08-25 14:44:00,
2016-08-25 10:49:00,74.7,65.1,29.91,SE,134,2.0,3.0,72,0.00,,,0.00,Wunderground v.1.15,2016-08-25 14:49:00,
2016-08-25 10:54:00,75.3,64.8,29.91,East,91,2.0,3.0,70,0.00,,,0.00,Wunderground v.1.15,2016-08-25 14:54:00,
2016-08-25 11:04:00,76.3,64.5,29.90,ESE,115,3.0,3.0,67,0.00,,,0.00,Wunderground v.1.15,2016-08-25 15:04:00,
2016-08-25 11:09:00,76.0,63.8,29.90,SE,132,3.0,5.0,66,0.00,,,0.00,Wunderground v.1.15,2016-08-25 15:09:00,
2016-08-25 11:19:00,76.5,64.7,29.90,ESE,106,4.0,4.0,67,0.00,,,0.00,Wunderground v.1.15,2016-08-25 15:19:00,
2016-08-25 11:39:00,77.7,65.4,29.89,ESE,121,4.0,4.0,66,0.00,,,0.00,Wunderground v.1.15,2016-08-25 15:39:00,
2016-08-25 11:44:00,78.1,64.9,29.89,ESE,109,3.0,4.0,64,0.00,,,0.00,Wunderground v.1.15,2016-08-25 15:44:00,
2016-08-25 11:49:00,78.3,65.1,29.88,ESE,107,4.0,4.0,64,0.00,,,0.00,Wunderground v.1.15,2016-08-25 15:49:00,
2016-08-25 11:54:00,78.3,65.6,29.88,SE,136,4.0,4.0,65,0.00,,,0.00,Wunderground v.1.15,2016-08-25 15:54:00,
2016-08-25 12:04:00,78.6,65.8,29.88,ESE,111,3.0,3.0,65,0.00,,,0.00,Wunderground v.1.15,2016-08-25 16:04:00,
2016-08-25 12:14:00,79.2,66.0,29.88,East,92,3.0,3.0,64,0.00,,,0.00,Wunderground v.1.15,2016-08-25 16:14:00,
2016-08-25 12:19:00,79.4,66.2,29.87,ESE,121,3.0,3.0,64,0.00,,,0.00,Wunderground v.1.15,2016-08-25 16:19:00,
2016-08-25 12:29:00,79.6,65.4,29.87,SE,139,4.0,5.0,62,0.00,,,0.00,Wunderground v.1.15,2016-08-25 16:29:00,